Location: Observatory
(52.1446°N, 0.4624°W)
Time: 15:52:36
(UTC+00:00)

ISS - Pass Details

Date: 13 November 2018
Orbit: 401 x 408 km, 51.6° (Epoch: 20 November)

Event Time Altitude Azimuth Distance (km) Brightness Sun altitude
Exits shadow 05:34:34 14° 214° (SSW) 1,228 -1.6 -15.8°
Drops below altitude 10° 05:36:11 10° 184° (S) 1,458 -1.0 -15.6°
Sets 05:38:56 0° 159° (SSE) 2,316 0.5 -15.2°
